Regional Weather Roundup
Issued by NWS State College, PA

Home | Current Version | Previous Version | Text Only | Print | Product List | Glossary On
Versions: 1 2 3 4 5 6 7 8 9 10 11 12 13 14 15 16 17 18 19 20 21 22 23 24 25 26 27 28 29 30 31 32 33 34 35 36 37 38 39 40 41 42 43 44 45 46 47 48 49 50
000
ASUS41 KCTP 032203
RWRCTP

REGIONAL WEATHER ROUNDUP
NATIONAL WEATHER SERVICE STATE COLLEGE PA
600 PM EDT THU SEP 03 2015

Note: "fair" indicates few or no clouds below 12,000 feet with no
significant weather and/or obstructions to visibility.

* = STATION THAT DOES NOT REPORT PRECIPITATION /E.G. RAIN...SNOW...ETC/
    THUNDER OR FOG.

PAZ002>004-007>009-013>016-020>023-029>032-032300-
WESTERN PENNSYLVANIA

CITY           SKY/WX    TMP DP  RH WIND       PRES   REMARKS
ERIE           MOSUNNY   77  69  76 W6        29.95R
MEADVILLE      LGT RAIN  73  60  63 NW3       29.98S
FRANKLIN*      MOSUNNY   77  66  69 NW3       29.99R
NEW CASTLE     FAIR      84  69  60 CALM      29.96R
BEAVER COUNTY  SUNNY     82  66  57 N3        29.97
BUTLER*        PTSUNNY   81  68  65 CALM      29.98R
PITTSBURGH INT CLOUDY    85  64  49 W7        29.95R
PITTSBURGH     PTSUNNY   82  63  52 SE3       29.95R
INDIANA*       SUNNY     84  68  58 NW6       29.98R
LATROBE        SUNNY     81  68  65 W7        29.95S
WASHINGTON CO* CLOUDY    82  66  57 SW7       29.96R
$$

PAZ004>006-010>012-017>019-024>028-033>037-041-042-045-046-049>053-032300-
CENTRAL PENNSYLVANIA

CITY           SKY/WX    TMP DP  RH WIND       PRES   REMARKS
BRADFORD       MOSUNNY   79  65  62 N3        29.99R
DUBOIS         CLOUDY    82  66  58 CALM      29.97R
CLEARFIELD     CLOUDY    83  66  56 NE9       29.95S
JOHNSTOWN      PTSUNNY   79  63  57 NW7       29.99R
ALTOONA        PTSUNNY   85  63  47 NE3       29.94S
STATE COLLEGE  MOSUNNY   79  68  69 VRB6      29.92F
WILLIAMSPORT   CLOUDY    78  71  79 CALM      29.87S
SELINSGROVE    PTSUNNY   85  71  63 N5        29.87S
FT INDIANTOWN  SUNNY     88  67  48 NW3       29.86S
CAPITAL CITY   SUNNY     90  61  37 NW6       29.85S
HARRISBURG     PTSUNNY   90  64  42 NW8       29.85R
YORK           MOSUNNY   87  67  51 CALM      29.87R
$$

PAZ038>040-043-044-047-048-054-055-060>062-067>071-032300-
EASTERN PENNSYLVANIA

CITY           SKY/WX    TMP DP  RH WIND       PRES   REMARKS
SCRANTON       CLOUDY    84  69  60 N6        29.89S
MOUNT POCONO   PTSUNNY   79  67  66 N3        29.94F
ALLENTOWN      MOSUNNY   88  67  49 NE5       29.84S
QUAKERTOWN*    PTCLDY    90  68  48 E6        29.86S
READING        SUNNY     90  66  45 W6        29.84R
LANCASTER      SUNNY     90  63  40 N6        29.85S
COATESVILLE    CLEAR     88  64  45 NW5       29.87S
POTTSTOWN      SUNNY     84  68  58 SW6       29.86R
BLUE BELL      SUNNY     88  68  51 CALM      29.83S
DOYLESTOWN     SUNNY     88  65  46 N5        29.84S
WILLOW GROVE   NOT AVBL
NORTH PHILA    SUNNY     93  60  33 NE6       29.84S
PHILADELPHIA   MOSUNNY   94  61  33 N12       29.82F
$$


USA.gov is the U.S. government's official web portal to all federal, state and local government web resources and services.